Texarkana, AR

6:33 PM CST on December 09, 2016 (GMT -0600)
Texarkana Regional-Webb

Weather History for KTXK - January, 2012

Change the Weather History Date:

Wednesday, January 25, 2012

  Actual Average Record
Temperature  
Mean Temperature 51 °F 44 °F  
Max Temperature 55 °F 55 °F 83 °F (1950)
Min Temperature 47 °F 34 °F 13 °F (1905)
Degree Days  
Heating Degree Days 14 21  
Month to date heating degree days 376 538  
Since 1 July heating degree days 1289 1605  
Cooling Degree Days 0 0  
Month to date cooling degree days 0 0  
Year to date cooling degree days 0 0  
Moisture  
Dew Point 49 °F    
Average Humidity 97    
Maximum Humidity 100    
Minimum Humidity 93    
Precipitation  
Precipitation 1.06 in 0.11 in 1.06 in (2012)
Month to date precipitation 2.60 2.72  
Year to date precipitation 2.60 2.72  
Snow  
Snow 0.00 in - - ()
Month to date snowfall 0.0  
Since 1 July snowfall 0.0  
Snow Depth 0.00 in    
Sea Level Pressure  
Sea Level Pressure 29.89 in    
Wind  
Wind Speed 7 mph (NE)    
Max Wind Speed 20 mph    
Max Gust Speed 29 mph    
Visibility 8 miles    
Events Rain , Thunderstorm    
T = Trace of Precipitation, MM = Missing Value Source: NWS Daily Summary

Daily Weather History Graph

Daily Weather History Graph

Search for Another Location

Airport or City:

Trip Planner

Search our weather history database for the weather conditions in past years. The results will help you decide how hot, cold, wet, or windy it might be!

Date:

Astronomy

Jan. 25, 2012 Rise Set
Actual Time 7:16 AM CST 5:40 PM CST
Civil Twilight 6:50 AM CST 6:06 PM CST
Nautical Twilight 6:19 AM CST 6:36 PM CST
Astronomical Twilight 5:50 AM CST 7:06 PM CST
Moon 8:26 AM CST (1/25) 8:22 PM CST (1/25)
Length of Visible Light 11h 16m
Length of Day
10h 23m
Waxing Crescent, 7% of the Moon is Illuminated
Jan 25
Waxing Crescent
Jan 30
First Quarter
Feb 7
Full
Feb 14
Last Quarter
Feb 21
New

Hourly Weather History & Observations

Time (CST) Temp. Windchill Dew Point Humidity Pressure Visibility Wind Dir Wind Speed Gust Speed Precip Events Conditions
12:53 AM 48.0 °F - 46.0 °F 93% 30.03 in 5.0 mi ENE 6.9 mph - 0.11 in Rain Rain
1:00 AM 46.4 °F 43.5 °F 46.4 °F 100% 30.04 in 2.5 mi ENE 5.8 mph - 0.09 in Rain Heavy Rain
1:06 AM 46.4 °F - 46.4 °F 100% 30.04 in 2.0 mi Calm Calm - 0.18 in Rain Heavy Rain
1:16 AM 46.4 °F 42.4 °F 46.4 °F 100% 30.04 in 9.0 mi NE 8.1 mph - 0.19 in Rain Light Rain
1:25 AM 46.4 °F 42.9 °F 46.4 °F 100% 30.03 in 10.0 mi ENE 6.9 mph - 0.19 in Rain Light Rain
1:53 AM 46.9 °F - 46.0 °F 97% 30.00 in 10.0 mi NE 10.4 mph - 0.19 in   Overcast
2:53 AM 48.0 °F - 46.0 °F 93% 29.96 in 10.0 mi ENE 8.1 mph - N/A   Overcast
3:53 AM 48.9 °F - 46.9 °F 93% 29.93 in 10.0 mi East 8.1 mph - 0.00 in   Overcast
4:53 AM 48.9 °F - 46.9 °F 93% 29.90 in 10.0 mi East 8.1 mph - N/A   Overcast
5:53 AM 48.9 °F - 46.9 °F 93% 29.91 in 9.0 mi Variable 4.6 mph - 0.01 in Rain Rain
6:15 AM 48.2 °F - 46.4 °F 93% 29.92 in 10.0 mi Variable 5.8 mph - 0.00 in Thunderstorm Overcast
6:32 AM 48.2 °F - 48.2 °F 100% 29.91 in 8.0 mi Variable 6.9 mph - 0.03 in Rain Light Rain
6:53 AM 48.9 °F - 48.0 °F 97% 29.94 in 10.0 mi NNW 11.5 mph - 0.05 in Rain Light Rain
7:01 AM 48.2 °F - 48.2 °F 100% 29.95 in 10.0 mi North 10.4 mph - 0.00 in Rain Light Rain
7:53 AM 48.0 °F - 46.9 °F 96% 29.96 in 8.0 mi NNE 10.4 mph - 0.05 in Rain Light Rain
8:30 AM 46.4 °F 42.4 °F 46.4 °F 100% 29.97 in 5.0 mi NNE 8.1 mph - 0.04 in Rain Light Rain
8:53 AM 48.0 °F - 46.9 °F 96% 29.97 in 8.0 mi NE 10.4 mph - 0.04 in   Overcast
9:53 AM 48.9 °F - 48.0 °F 97% 29.96 in 10.0 mi ENE 10.4 mph - N/A   Overcast
10:53 AM 50.0 °F - 48.9 °F 96% 29.94 in 6.0 mi ENE 10.4 mph - 0.01 in Rain Light Rain
11:53 AM 50.0 °F - 48.9 °F 96% 29.88 in 5.0 mi ENE 11.5 mph - 0.03 in Rain Light Rain
12:37 PM 50.0 °F - 48.2 °F 94% 29.88 in 1.8 mi Variable 5.8 mph - 0.15 in Rain , Thunderstorm Heavy Thunderstorms and Rain
12:46 PM 48.2 °F - 48.2 °F 100% 29.87 in 1.2 mi Variable 6.9 mph - 0.23 in Rain , Thunderstorm Heavy Thunderstorms and Rain
12:49 PM 50.0 °F - 48.2 °F 94% 29.87 in 2.0 mi East 8.1 mph - 0.24 in Rain , Thunderstorm Heavy Thunderstorms and Rain
12:53 PM 50.0 °F - 48.2 °F 94% 29.87 in 3.0 mi East 9.2 mph 17.3 mph N/A Rain , Thunderstorm Thunderstorms and Rain
1:05 PM 50.0 °F - 48.2 °F 94% 29.85 in 5.0 mi ENE 8.1 mph - N/A Rain , Thunderstorm Heavy Thunderstorms and Rain
1:15 PM 50.0 °F - 50.0 °F 100% 29.84 in 4.0 mi NE 6.9 mph - 0.05 in Rain Heavy Rain
1:53 PM 52.0 °F - 51.1 °F 97% 29.81 in 9.0 mi ENE 8.1 mph - 0.13 in Rain Rain
2:53 PM 52.0 °F - 52.0 °F 100% 29.78 in 10.0 mi East 9.2 mph - 0.07 in Rain Light Rain
3:53 PM 52.0 °F - 51.1 °F 97% 29.73 in 10.0 mi ESE 11.5 mph 21.9 mph 0.08 in Rain Light Rain
4:36 PM 51.8 °F - 51.8 °F 100% 29.69 in 10.0 mi ESE 13.8 mph 25.3 mph N/A   Mostly Cloudy
4:48 PM 53.6 °F - 53.6 °F 100% 29.76 in 10.0 mi West 15.0 mph 20.7 mph 0.02 in   Mostly Cloudy
4:53 PM 55.0 °F - 53.1 °F 93% 29.76 in 10.0 mi West 8.1 mph 26.5 mph 0.02 in   Mostly Cloudy
5:29 PM 55.4 °F - 53.6 °F 94% 29.80 in 10.0 mi West 3.5 mph - N/A   Overcast
5:53 PM 55.0 °F - 54.0 °F 96% 29.81 in 10.0 mi Calm Calm - N/A   Overcast
6:53 PM 54.0 °F - 53.1 °F 97% - 10.0 mi NNE 3.5 mph - N/A   Overcast
7:44 PM 53.6 °F - 51.8 °F 94% - 10.0 mi NNE 4.6 mph - N/A   Overcast
7:51 PM 53.6 °F - 51.8 °F 94% - 10.0 mi NNE 3.5 mph - N/A   Overcast
7:53 PM 53.1 °F - 52.0 °F 96% - 10.0 mi Calm Calm - N/A   Overcast
8:15 PM 53.6 °F - 51.8 °F 94% - 10.0 mi WNW 5.8 mph - N/A   Overcast
8:53 PM 53.6 °F - 51.8 °F 94% 29.85 in 7.0 mi WNW 4.6 mph - N/A   Overcast
9:42 PM 51.8 °F - 51.8 °F 100% 29.84 in 10.0 mi Calm Calm - 0.00 in   Overcast
9:53 PM 51.1 °F - 51.1 °F 100% 29.84 in 10.0 mi Calm Calm - 0.00 in   Overcast
10:40 PM 51.8 °F - 51.8 °F 100% 29.85 in 10.0 mi Calm Calm - N/A   Overcast
10:53 PM 51.1 °F - 51.1 °F 100% 29.85 in 10.0 mi Calm Calm - N/A   Overcast
11:26 PM 51.8 °F - 51.8 °F 100% 29.84 in 5.0 mi Calm Calm - 0.00 in   Overcast
11:53 PM 51.1 °F - 51.1 °F 100% 29.84 in 6.0 mi Calm Calm - 0.00 in   Overcast